Location: Courcelles
(49.2596°N, 1.7419°E)
Time: 06:10:01
(UTC+00:00)

SAR-Lupe-4 - Pass Details

Date: 17 November 2025
Orbit: 476 x 483 km, 98.1° (Epoch: 03 October)

Event Time Altitude Azimuth Distance (km) Brightness Sun altitude
Rises 16:41:01 0° 146° (SE) 2,536 7.1 -5.6°
Reaches altitude 10° 16:43:09 10° 138° (SE) 1,661 6.1 -5.9°
Maximum altitude 16:46:29 38° 69° (ENE) 753 4.0 -6.4°
Drops below altitude 10° 16:49:50 10° 1° (N) 1,671 6.1 -6.9°
Sets 16:51:59 0° 353° (N) 2,555 7.1 -7.2°
